Weather History for Maxwell AFB, AL

Change the Weather History Date:

Saturday, March 9, 2013

  Actual Average Record
Temperature  
Mean Temperature 59 °F -  
Max Temperature 73 °F 66 °F 80 °F (1997)
Min Temperature 45 °F 44 °F 30 °F (2008)
Degree Days  
Heating Degree Days 6    
Growing Degree Days 9 (Base 50)    
Moisture  
Dew Point 35 °F    
Average Humidity 43    
Maximum Humidity 69    
Minimum Humidity 26    
Precipitation  
Precipitation 0.00 in - - ()
Sea Level Pressure  
Sea Level Pressure 30.20 in    
Wind  
Wind Speed 6 mph (ESE)    
Max Wind Speed 15 mph    
Max Gust Speed 18 mph    
Visibility 10 miles    
Events      
Averages and records for this station are not official NWS values.
T = Trace of Precipitation, MM = Missing Value Source: NWS Daily Summary

Daily Weather History Graph

Daily Weather History Graph

Search for Another Location

Airport:

Trip Planner

Search our weather history database for the weather conditions in past years. The results will help you decide how hot, cold, wet, or windy it might be!

Date:

Astronomy

Mar. 09, 2013 Rise Set
Actual Time 6:02 AM CST 5:49 PM CST
Civil Twilight 5:38 AM CST 6:13 PM CST
Nautical Twilight 5:10 AM CST 6:42 PM CST
Astronomical Twilight 4:41 AM CST 7:10 PM CST
Moon 4:20 AM CST (3/9) 3:55 PM CST (3/9)
Length of Visible Light 12h 35m
Length of Day
11h 46m
Waning Crescent, 5% of the Moon is Illuminated
Mar 9
Waning Crescent
Mar 11
New
Mar 19
First Quarter
Mar 27
Full
Apr 2
Last Quarter

Hourly Weather History & Observations

Time (CST) Temp. Windchill Dew Point Humidity Pressure Visibility Wind Dir Wind Speed Gust Speed Precip Events Conditions
12:58 AM 47.7 °F - 36.9 °F 66% 30.22 in 10.0 mi North 4.6 mph - N/A   Clear
1:58 AM 47.7 °F - 34.2 °F 60% 30.21 in 10.0 mi Calm Calm - N/A   Clear
2:58 AM 47.1 °F - 36.5 °F 67% 30.22 in 10.0 mi North 4.6 mph - N/A   Clear
3:58 AM 45.7 °F - 35.1 °F 66% 30.21 in 10.0 mi NNE 1.2 mph - N/A   Clear
4:58 AM 45.3 °F - 35.6 °F 69% 30.23 in 10.0 mi Calm Calm - N/A   Clear
5:58 AM 45.7 °F 44.4 °F 33.4 °F 62% 30.24 in 10.0 mi NNE 3.5 mph - N/A   Clear
6:58 AM 46.9 °F - 34.3 °F 62% 30.25 in 10.0 mi NE 5.8 mph - N/A   Clear
7:58 AM 51.3 °F - 33.8 °F 51% 30.27 in 10.0 mi NE 4.6 mph - N/A   Partly Cloudy
8:58 AM 59.4 °F - 35.4 °F 41% 30.28 in 10.0 mi ESE 11.5 mph - N/A   Clear
9:58 AM 63.5 °F - 36.5 °F 37% 30.27 in 10.0 mi ESE 11.5 mph - N/A   Clear
10:58 AM 67.3 °F - 37.4 °F 33% 30.25 in 10.0 mi ESE 10.4 mph - N/A   Clear
11:58 AM 70.0 °F - 33.4 °F 26% 30.23 in 10.0 mi SE 15.0 mph 18.4 mph N/A   Overcast
12:58 PM 71.2 °F - 34.9 °F 26% 30.20 in 10.0 mi SE 8.1 mph - N/A   Overcast
1:58 PM 71.4 °F - 34.7 °F 26% 30.17 in 10.0 mi ESE 10.4 mph - N/A   Overcast
2:58 PM 73.2 °F - 36.9 °F 27% 30.16 in 10.0 mi SSE 11.5 mph 17.3 mph N/A   Overcast
3:58 PM 72.1 °F - 36.7 °F 27% 30.16 in 10.0 mi SSE 10.4 mph - N/A   Scattered Clouds
4:58 PM 70.0 °F - 36.3 °F 29% 30.15 in 10.0 mi SSE 10.4 mph - N/A   Overcast
5:58 PM 63.5 °F - 36.5 °F 37% 30.16 in 10.0 mi SE 9.2 mph - N/A   Clear
6:58 PM 64.2 °F - 36.3 °F 36% 30.15 in 10.0 mi SE 10.4 mph - N/A   Clear
7:58 PM 63.5 °F - 35.6 °F 35% 30.16 in 10.0 mi SSE 9.2 mph - N/A   Clear
8:58 PM 63.5 °F - 31.5 °F 30% 30.13 in 10.0 mi ESE 15.0 mph - N/A   Overcast
9:58 PM 61.9 °F - 31.5 °F 32% 30.15 in 10.0 mi SSE 8.1 mph - N/A   Mostly Cloudy
10:58 PM 59.2 °F - 33.3 °F 38% 30.13 in 10.0 mi ESE 6.9 mph - N/A   Overcast
11:58 PM 57.2 °F - 34.3 °F 42% 30.13 in 10.0 mi ESE 5.8 mph - N/A   Overcast